Tracking 20232 objects as of 20-Jan-2020
HD Live streaming from Space Station
objects crossing your sky now

NOAA 16 DEB

Track NOAA 16 DEB now!
10-day predictions


NORAD ID: 41521
Int'l Code: 2000-055MV
Perigee: 783.3 km
Apogee: 882.8 km
Inclination: 98.8 °
Period: 101.4 minutes
Semi major axis: 7204 km
RCS: Unknown
Launch date: September 21, 2000
Source: United States (US)
Launch site: AIR FORCE WESTERN TEST RANGE (AFWTR)

Note: This is SATELLITE DEBRIS
aabbcc
Your satellite tracking list
Your tracking list is empty




NASA's NSSDC Master Catalog

Two Line Element Set (TLE):
1 41521U 00055MV  20019.05934413 +.00001037 +00000-0 +49824-3 0  9995
2 41521 098.8109 097.8876 0069052 175.7901 184.3870 14.19826499193936
Source of the keplerian elements: AFSPC